{"data":{"norad_id":54031,"intl_designator":"2022-130A","name":"COSMOS 2559 (707K)","alt_names":[],"object_type":"PAYLOAD","status":"ACTIVE","operator":null,"country":"CIS","launch_date":"2022-10-10","launch_site_code":"PLMSC","launch_vehicle":null,"mission":null,"orbit_class":"UNKNOWN","rcs_meters":null,"size_class":null,"mass_kg":null,"dimensions":null,"purposes":["nav"],"wikipedia_slug":null,"has_3d_model":false,"image_url":null,"decayed_at":null,"tle_current":{"epoch":"2026-05-23T23:54:37.453248Z","epoch_age_seconds":165278,"freshness":"FRESH","line1":"1 54031U 22130A   26143.99626682 -.00000046  00000+0  00000+0 0  9994","line2":"2 54031  64.2867 315.4211 0012040 176.3040 183.7030  2.13101609 28176","mean_motion":2.13101609,"eccentricity":0.001204,"inclination_deg":64.2867,"raan_deg":315.4211,"arg_perigee_deg":176.304,"mean_anomaly_deg":183.703,"bstar":0,"rev_number":2817,"period_min":675.73398753643,"perigee_km":19099.206930053,"apogee_km":19160.630328008,"semimajor_km":25508.05562903,"source":"CELESTRAK","updated_at":"2026-05-25T13:38:23.896741Z"}}}